Year,Month,Day,Hour,Minute,Value (Times are PST for temperature in C)
2013,08,06,00,00,16.80
2013,08,06,00,01,16.80
2013,08,06,00,02,16.80
2013,08,06,00,03,16.80
2013,08,06,00,04,16.80
2013,08,06,00,05,16.80
2013,08,06,00,06,16.80
2013,08,06,00,07,16.80
2013,08,06,00,08,16.80
2013,08,06,00,09,16.80
2013,08,06,00,10,16.80
2013,08,06,00,11,16.80
2013,08,06,00,12,16.80
2013,08,06,00,13,16.80
2013,08,06,00,14,16.80
2013,08,06,00,15,16.80
2013,08,06,00,16,16.80
2013,08,06,00,17,16.80
2013,08,06,00,18,16.80
2013,08,06,00,19,16.80
2013,08,06,00,20,16.70
2013,08,06,00,21,16.70
2013,08,06,00,22,16.70
2013,08,06,00,23,16.70
2013,08,06,00,24,16.70
2013,08,06,00,25,16.70
2013,08,06,00,26,16.70
2013,08,06,00,27,16.70
2013,08,06,00,28,16.70
2013,08,06,00,29,16.70
2013,08,06,00,30,16.60
2013,08,06,00,31,16.60
2013,08,06,00,32,16.60
2013,08,06,00,33,16.60
2013,08,06,00,34,16.50
2013,08,06,00,35,16.50
2013,08,06,00,36,16.50
2013,08,06,00,37,16.40
2013,08,06,00,38,16.40
2013,08,06,00,39,16.40
2013,08,06,00,40,16.40
2013,08,06,00,41,16.30
2013,08,06,00,42,16.30
2013,08,06,00,43,16.30
2013,08,06,00,44,16.30
2013,08,06,00,45,16.30
2013,08,06,00,46,16.30
2013,08,06,00,47,16.20
2013,08,06,00,48,16.20
2013,08,06,00,49,16.20
2013,08,06,00,50,16.20
2013,08,06,00,51,16.10
2013,08,06,00,52,16.10
2013,08,06,00,53,16.10
2013,08,06,00,54,16.10
2013,08,06,00,55,16.10
2013,08,06,00,56,16.10
2013,08,06,00,57,16.10
2013,08,06,00,58,16.10
2013,08,06,00,59,16.10
2013,08,06,01,00,16.10
2013,08,06,01,01,16.10
2013,08,06,01,02,16.10
2013,08,06,01,03,16.10
2013,08,06,01,04,16.10
2013,08,06,01,05,16.10
2013,08,06,01,06,16.10
2013,08,06,01,07,16.10
2013,08,06,01,08,16.10
2013,08,06,01,09,16.10
2013,08,06,01,10,16.10
2013,08,06,01,11,16.10
2013,08,06,01,12,16.10
2013,08,06,01,13,16.10
2013,08,06,01,14,16.10
2013,08,06,01,15,16.10
2013,08,06,01,16,16.10
2013,08,06,01,17,16.10
2013,08,06,01,18,16.10
2013,08,06,01,19,16.10
2013,08,06,01,20,16.10
2013,08,06,01,21,16.10
2013,08,06,01,22,16.10
2013,08,06,01,23,16.10
2013,08,06,01,24,16.10
2013,08,06,01,25,16.10
2013,08,06,01,26,16.10
2013,08,06,01,27,16.10
2013,08,06,01,28,16.10
2013,08,06,01,29,16.10
2013,08,06,01,30,16.00
2013,08,06,01,31,16.00
2013,08,06,01,32,16.00
2013,08,06,01,33,16.00
2013,08,06,01,34,16.00
2013,08,06,01,35,15.90
2013,08,06,01,36,15.90
2013,08,06,01,37,15.90
2013,08,06,01,38,15.90
2013,08,06,01,39,15.90
2013,08,06,01,40,15.90
2013,08,06,01,41,15.80
2013,08,06,01,42,15.80
2013,08,06,01,43,15.80
2013,08,06,01,44,15.80
2013,08,06,01,45,15.80
2013,08,06,01,46,15.70
2013,08,06,01,47,15.70
2013,08,06,01,48,15.70
2013,08,06,01,49,15.70
2013,08,06,01,50,15.70
2013,08,06,01,51,15.70
2013,08,06,01,52,15.70
2013,08,06,01,53,15.70
2013,08,06,01,54,15.70
2013,08,06,01,55,15.60
2013,08,06,01,56,15.60
2013,08,06,01,57,15.60
2013,08,06,01,58,15.60
2013,08,06,01,59,15.60
2013,08,06,02,00,15.60
2013,08,06,02,01,15.60
2013,08,06,02,02,15.60
2013,08,06,02,03,15.60
2013,08,06,02,04,15.60
2013,08,06,02,05,15.60
2013,08,06,02,06,15.60
2013,08,06,02,07,15.60
2013,08,06,02,08,15.60
2013,08,06,02,09,15.50
2013,08,06,02,10,15.50
2013,08,06,02,11,15.50
2013,08,06,02,12,15.50
2013,08,06,02,13,15.50
2013,08,06,02,14,15.40
2013,08,06,02,15,15.40
2013,08,06,02,16,15.40
2013,08,06,02,17,15.40
2013,08,06,02,18,15.40
2013,08,06,02,19,15.40
2013,08,06,02,20,15.30
2013,08,06,02,21,15.30
2013,08,06,02,22,15.30
2013,08,06,02,23,15.30
2013,08,06,02,24,15.30
2013,08,06,02,25,15.20
2013,08,06,02,26,15.20
2013,08,06,02,27,15.20
2013,08,06,02,28,15.20
2013,08,06,02,29,15.20
2013,08,06,02,30,15.20
2013,08,06,02,31,15.20
2013,08,06,02,32,15.10
2013,08,06,02,33,15.10
2013,08,06,02,34,15.10
2013,08,06,02,35,15.10
2013,08,06,02,36,15.10
2013,08,06,02,37,15.00
2013,08,06,02,38,15.00
2013,08,06,02,39,15.00
2013,08,06,02,40,15.00
2013,08,06,02,41,14.90
2013,08,06,02,42,14.90
2013,08,06,02,43,14.90
2013,08,06,02,44,14.90
2013,08,06,02,45,14.90
2013,08,06,02,46,14.90
2013,08,06,02,47,14.90
2013,08,06,02,48,14.80
2013,08,06,02,49,14.80
2013,08,06,02,50,14.80
2013,08,06,02,51,14.80
2013,08,06,02,52,14.80
2013,08,06,02,53,14.80
2013,08,06,02,54,14.80
2013,08,06,02,55,14.80
2013,08,06,02,56,14.80
2013,08,06,02,57,14.80
2013,08,06,02,58,14.80
2013,08,06,02,59,14.80
2013,08,06,03,00,14.80
2013,08,06,03,01,14.80
2013,08,06,03,02,14.80
2013,08,06,03,03,14.90
2013,08,06,03,04,14.90
2013,08,06,03,05,14.90
2013,08,06,03,06,14.90
2013,08,06,03,07,14.90
2013,08,06,03,08,14.90
2013,08,06,03,09,14.90
2013,08,06,03,10,14.90
2013,08,06,03,11,14.80
2013,08,06,03,12,14.80
2013,08,06,03,13,14.80
2013,08,06,03,14,14.80
2013,08,06,03,15,14.80
2013,08,06,03,16,14.80
2013,08,06,03,17,14.80
2013,08,06,03,18,14.80
2013,08,06,03,19,14.80
2013,08,06,03,20,14.80
2013,08,06,03,21,14.70
2013,08,06,03,22,14.70
2013,08,06,03,23,14.70
2013,08,06,03,24,14.70
2013,08,06,03,25,14.70
2013,08,06,03,26,14.70
2013,08,06,03,27,14.60
2013,08,06,03,28,14.60
2013,08,06,03,29,14.60
2013,08,06,03,30,14.60
2013,08,06,03,31,14.60
2013,08,06,03,32,14.60
2013,08,06,03,33,14.60
2013,08,06,03,34,14.60
2013,08,06,03,35,14.60
2013,08,06,03,36,14.60
2013,08,06,03,37,14.70
2013,08,06,03,38,14.70
2013,08,06,03,39,14.70
2013,08,06,03,40,14.70
2013,08,06,03,41,14.70
2013,08,06,03,42,14.70
2013,08,06,03,43,14.70
2013,08,06,03,44,14.70
2013,08,06,03,45,14.70
2013,08,06,03,46,14.70
2013,08,06,03,47,14.70
2013,08,06,03,48,14.70
2013,08,06,03,49,14.70
2013,08,06,03,50,14.70
2013,08,06,03,51,14.70
2013,08,06,03,52,14.60
2013,08,06,03,53,14.60
2013,08,06,03,54,14.60
2013,08,06,03,55,14.50
2013,08,06,03,56,14.50
2013,08,06,03,57,14.50
2013,08,06,03,58,14.50
2013,08,06,03,59,14.40
2013,08,06,04,00,14.40
2013,08,06,04,01,14.40
2013,08,06,04,02,14.40
2013,08,06,04,03,14.30
2013,08,06,04,04,14.30
2013,08,06,04,05,14.30
2013,08,06,04,06,14.30
2013,08,06,04,07,14.30
2013,08,06,04,08,14.20
2013,08,06,04,09,14.20
2013,08,06,04,10,14.30
2013,08,06,04,11,14.30
2013,08,06,04,12,14.30
2013,08,06,04,13,14.30
2013,08,06,04,14,14.20
2013,08,06,04,15,14.20
2013,08,06,04,16,14.20
2013,08,06,04,17,14.20
2013,08,06,04,18,14.20
2013,08,06,04,19,14.20
2013,08,06,04,20,14.20
2013,08,06,04,21,14.10
2013,08,06,04,22,14.10
2013,08,06,04,23,14.10
2013,08,06,04,24,14.10
2013,08,06,04,25,14.10
2013,08,06,04,26,14.10
2013,08,06,04,27,14.10
2013,08,06,04,28,14.10
2013,08,06,04,29,14.10
2013,08,06,04,30,14.10
2013,08,06,04,31,14.10
2013,08,06,04,32,14.10
2013,08,06,04,33,14.10
2013,08,06,04,34,14.10
2013,08,06,04,35,14.10
2013,08,06,04,36,14.10
2013,08,06,04,37,14.10
2013,08,06,04,38,14.10
2013,08,06,04,39,14.10
2013,08,06,04,40,14.10
2013,08,06,04,41,14.10
2013,08,06,04,42,14.10
2013,08,06,04,43,14.10
2013,08,06,04,44,14.10
2013,08,06,04,45,14.10
2013,08,06,04,46,14.10
2013,08,06,04,47,14.10
2013,08,06,04,48,14.10
2013,08,06,04,49,14.00
2013,08,06,04,50,14.00
2013,08,06,04,51,14.00
2013,08,06,04,52,13.90
2013,08,06,04,53,13.80
2013,08,06,04,54,13.80
2013,08,06,04,55,13.80
2013,08,06,04,56,13.80
2013,08,06,04,57,13.80
2013,08,06,04,58,13.80
2013,08,06,04,59,13.80
2013,08,06,05,00,13.80
2013,08,06,05,01,13.80
2013,08,06,05,02,13.80
2013,08,06,05,03,13.80
2013,08,06,05,04,13.80
2013,08,06,05,05,13.80
2013,08,06,05,06,13.80
2013,08,06,05,07,13.80
2013,08,06,05,08,13.80
2013,08,06,05,09,13.80
2013,08,06,05,10,13.80
2013,08,06,05,11,13.80
2013,08,06,05,12,13.80
2013,08,06,05,13,13.70
2013,08,06,05,14,13.70
2013,08,06,05,15,13.70
2013,08,06,05,16,13.70
2013,08,06,05,17,13.70
2013,08,06,05,18,13.70
2013,08,06,05,19,13.70
2013,08,06,05,20,13.70
2013,08,06,05,21,13.70
2013,08,06,05,22,13.70
2013,08,06,05,23,13.70
2013,08,06,05,24,13.70
2013,08,06,05,25,13.70
2013,08,06,05,26,13.70
2013,08,06,05,27,13.70
2013,08,06,05,28,13.60
2013,08,06,05,29,13.60
2013,08,06,05,30,13.60
2013,08,06,05,31,13.60
2013,08,06,05,32,13.50
2013,08,06,05,33,13.50
2013,08,06,05,34,13.40
2013,08,06,05,35,13.40
2013,08,06,05,36,13.40
2013,08,06,05,37,13.40
2013,08,06,05,38,13.30
2013,08,06,05,39,13.30
2013,08,06,05,40,13.30
2013,08,06,05,41,13.20
2013,08,06,05,42,13.20
2013,08,06,05,43,13.20
2013,08,06,05,44,13.20
2013,08,06,05,45,13.20
2013,08,06,05,46,13.30
2013,08,06,05,47,13.30
2013,08,06,05,48,13.30
2013,08,06,05,49,13.30
2013,08,06,05,50,13.30
2013,08,06,05,51,13.30
2013,08,06,05,52,13.30
2013,08,06,05,53,13.30
2013,08,06,05,54,13.30
2013,08,06,05,55,13.30
2013,08,06,05,56,13.30
2013,08,06,05,57,13.20
2013,08,06,05,58,13.20
2013,08,06,05,59,13.20
2013,08,06,06,00,13.20
2013,08,06,06,01,13.20
2013,08,06,06,02,13.10
2013,08,06,06,03,13.10
2013,08,06,06,04,13.10
2013,08,06,06,05,13.10
2013,08,06,06,06,13.10
2013,08,06,06,07,13.10
2013,08,06,06,08,13.10
2013,08,06,06,09,13.10
2013,08,06,06,10,13.10
2013,08,06,06,11,13.10
2013,08,06,06,12,13.10
2013,08,06,06,13,13.10
2013,08,06,06,14,13.10
2013,08,06,06,15,13.10
2013,08,06,06,16,13.10
2013,08,06,06,17,13.10
2013,08,06,06,18,13.20
2013,08,06,06,19,13.20
2013,08,06,06,20,13.20
2013,08,06,06,21,13.20
2013,08,06,06,22,13.20
2013,08,06,06,23,13.20
2013,08,06,06,24,13.30
2013,08,06,06,25,13.30
2013,08,06,06,26,13.30
2013,08,06,06,27,13.30
2013,08,06,06,28,13.30
2013,08,06,06,29,13.30
2013,08,06,06,30,13.40
2013,08,06,06,31,13.40
2013,08,06,06,32,13.40
2013,08,06,06,33,13.40
2013,08,06,06,34,13.50
2013,08,06,06,35,13.50
2013,08,06,06,36,13.50
2013,08,06,06,37,13.60
2013,08,06,06,38,13.60
2013,08,06,06,39,13.60
2013,08,06,06,40,13.60
2013,08,06,06,41,13.70
2013,08,06,06,42,13.70
2013,08,06,06,43,13.70
2013,08,06,06,44,13.70
2013,08,06,06,45,13.80
2013,08,06,06,46,13.90
2013,08,06,06,47,13.90
2013,08,06,06,48,14.00
2013,08,06,06,49,14.10
2013,08,06,06,50,14.10
2013,08,06,06,51,14.20
2013,08,06,06,52,14.20
2013,08,06,06,53,14.30
2013,08,06,06,54,14.40
2013,08,06,06,55,14.40
2013,08,06,06,56,14.50
2013,08,06,06,57,14.50
2013,08,06,06,58,14.60
2013,08,06,06,59,14.60
2013,08,06,07,00,14.70
2013,08,06,07,01,14.70
2013,08,06,07,02,14.80
2013,08,06,07,03,14.80
2013,08,06,07,04,14.90
2013,08,06,07,05,14.90
2013,08,06,07,06,15.00
2013,08,06,07,07,15.00
2013,08,06,07,08,15.10
2013,08,06,07,09,15.10
2013,08,06,07,10,15.20
2013,08,06,07,11,15.20
2013,08,06,07,12,15.30
2013,08,06,07,13,15.30
2013,08,06,07,14,15.40
2013,08,06,07,15,15.50
2013,08,06,07,16,15.50
2013,08,06,07,17,15.60
2013,08,06,07,18,15.70
2013,08,06,07,19,15.80
2013,08,06,07,20,15.80
2013,08,06,07,21,15.90
2013,08,06,07,22,16.00
2013,08,06,07,23,16.20
2013,08,06,07,24,16.30
2013,08,06,07,25,16.40
2013,08,06,07,26,16.50
2013,08,06,07,27,16.60
2013,08,06,07,28,16.70
2013,08,06,07,29,16.80
2013,08,06,07,30,16.90
2013,08,06,07,31,17.00
2013,08,06,07,32,17.10
2013,08,06,07,33,17.20
2013,08,06,07,34,17.30
2013,08,06,07,35,17.30
2013,08,06,07,36,17.40
2013,08,06,07,37,17.50
2013,08,06,07,38,17.60
2013,08,06,07,39,17.80
2013,08,06,07,40,18.00
2013,08,06,07,41,18.20
2013,08,06,07,42,18.40
2013,08,06,07,43,18.60
2013,08,06,07,44,18.70
2013,08,06,07,45,18.90
2013,08,06,07,46,19.10
2013,08,06,07,47,19.30
2013,08,06,07,48,19.40
2013,08,06,07,49,19.50
2013,08,06,07,50,19.60
2013,08,06,07,51,19.60
2013,08,06,07,52,19.70
2013,08,06,07,53,19.70
2013,08,06,07,54,19.70
2013,08,06,07,55,19.80
2013,08,06,07,56,19.90
2013,08,06,07,57,20.00
2013,08,06,07,58,20.10
2013,08,06,07,59,20.20
2013,08,06,08,00,20.20
2013,08,06,08,01,20.30
2013,08,06,08,02,20.40
2013,08,06,08,03,20.40
2013,08,06,08,04,20.50
2013,08,06,08,05,20.50
2013,08,06,08,06,20.50
2013,08,06,08,07,20.60
2013,08,06,08,08,20.50
2013,08,06,08,09,20.50
2013,08,06,08,10,20.60
2013,08,06,08,11,20.60
2013,08,06,08,12,20.60
2013,08,06,08,13,20.70
2013,08,06,08,14,20.70
2013,08,06,08,15,20.80
2013,08,06,08,16,20.80
2013,08,06,08,17,20.80
2013,08,06,08,18,20.70
2013,08,06,08,19,20.70
2013,08,06,08,20,20.70
2013,08,06,08,21,20.70
2013,08,06,08,22,20.80
2013,08,06,08,23,20.80
2013,08,06,08,24,20.90
2013,08,06,08,25,20.90
2013,08,06,08,26,20.90
2013,08,06,08,27,21.00
2013,08,06,08,28,21.00
2013,08,06,08,29,21.00
2013,08,06,08,30,21.00
2013,08,06,08,31,21.10
2013,08,06,08,32,21.10
2013,08,06,08,33,21.20
2013,08,06,08,34,21.20
2013,08,06,08,35,21.30
2013,08,06,08,36,21.40
2013,08,06,08,37,21.50
2013,08,06,08,38,21.60
2013,08,06,08,39,21.60
2013,08,06,08,40,21.60
2013,08,06,08,41,21.50
2013,08,06,08,42,21.50
2013,08,06,08,43,21.40
2013,08,06,08,44,21.30
2013,08,06,08,45,21.30
2013,08,06,08,46,21.20
2013,08,06,08,47,21.30
2013,08,06,08,48,21.30
2013,08,06,08,49,21.40
2013,08,06,08,50,21.40
2013,08,06,08,51,21.50
2013,08,06,08,52,21.60
2013,08,06,08,53,21.60
2013,08,06,08,54,21.60
2013,08,06,08,55,21.60
2013,08,06,08,56,21.60
2013,08,06,08,57,21.70
2013,08,06,08,58,21.60
2013,08,06,08,59,21.60
2013,08,06,09,00,21.60
2013,08,06,09,01,21.60
2013,08,06,09,02,21.60
2013,08,06,09,03,21.50
2013,08,06,09,04,21.50
2013,08,06,09,05,21.40
2013,08,06,09,06,21.30
2013,08,06,09,07,21.20
2013,08,06,09,08,21.10
2013,08,06,09,09,21.10
2013,08,06,09,10,21.10
2013,08,06,09,11,21.10
2013,08,06,09,12,21.10
2013,08,06,09,13,21.10
2013,08,06,09,14,21.10
2013,08,06,09,15,21.10
2013,08,06,09,16,21.20
2013,08,06,09,17,21.20
2013,08,06,09,18,21.20
2013,08,06,09,19,21.20
2013,08,06,09,20,21.20
2013,08,06,09,21,21.20
2013,08,06,09,22,21.30
2013,08,06,09,23,21.30
2013,08,06,09,24,21.30
2013,08,06,09,25,21.30
2013,08,06,09,26,21.30
2013,08,06,09,27,21.20
2013,08,06,09,28,21.20
2013,08,06,09,29,21.20
2013,08,06,09,30,21.20
2013,08,06,09,31,21.30
2013,08,06,09,32,21.30
2013,08,06,09,33,21.40
2013,08,06,09,34,21.40
2013,08,06,09,35,21.40
2013,08,06,09,36,21.40
2013,08,06,09,37,21.40
2013,08,06,09,38,21.50
2013,08,06,09,39,21.50
2013,08,06,09,40,21.40
2013,08,06,09,41,21.50
2013,08,06,09,42,21.50
2013,08,06,09,43,21.60
2013,08,06,09,44,21.60
2013,08,06,09,45,21.50
2013,08,06,09,46,21.50
2013,08,06,09,47,21.50
2013,08,06,09,48,21.40
2013,08,06,09,49,21.40
2013,08,06,09,50,21.40
2013,08,06,09,51,21.40
2013,08,06,09,52,21.40
2013,08,06,09,53,21.50
2013,08,06,09,54,21.40
2013,08,06,09,55,21.40
2013,08,06,09,56,21.30
2013,08,06,09,57,21.30
2013,08,06,09,58,21.30
2013,08,06,09,59,21.30
2013,08,06,10,00,21.30
2013,08,06,10,01,21.30
2013,08,06,10,02,21.30
2013,08,06,10,03,21.30
2013,08,06,10,04,21.30
2013,08,06,10,05,21.30
2013,08,06,10,06,21.30
2013,08,06,10,07,21.30
2013,08,06,10,08,21.30
2013,08,06,10,09,21.30
2013,08,06,10,10,21.30
2013,08,06,10,11,21.30
2013,08,06,10,12,21.40
2013,08,06,10,13,21.40
2013,08,06,10,14,21.50
2013,08,06,10,15,21.40
2013,08,06,10,16,21.50
2013,08,06,10,17,21.50
2013,08,06,10,18,21.60
2013,08,06,10,19,21.60
2013,08,06,10,20,21.60
2013,08,06,10,21,21.60
2013,08,06,10,22,21.60
2013,08,06,10,23,21.70
2013,08,06,10,24,21.70
2013,08,06,10,25,21.70
2013,08,06,10,26,21.60
2013,08,06,10,27,21.60
2013,08,06,10,28,21.60
2013,08,06,10,29,21.70
2013,08,06,10,30,21.70
2013,08,06,10,31,21.80
2013,08,06,10,32,21.90
2013,08,06,10,33,21.90
2013,08,06,10,34,21.90
2013,08,06,10,35,21.90
2013,08,06,10,36,21.90
2013,08,06,10,37,21.90
2013,08,06,10,38,21.90
2013,08,06,10,39,21.80
2013,08,06,10,40,21.80
2013,08,06,10,41,21.80
2013,08,06,10,42,21.80
2013,08,06,10,43,21.80
2013,08,06,10,44,21.80
2013,08,06,10,45,21.80
2013,08,06,10,46,21.90
2013,08,06,10,47,21.90
2013,08,06,10,48,22.00
2013,08,06,10,49,22.00
2013,08,06,10,50,22.10
2013,08,06,10,51,22.20
2013,08,06,10,52,22.20
2013,08,06,10,53,22.20
2013,08,06,10,54,22.20
2013,08,06,10,55,22.10
2013,08,06,10,56,22.00
2013,08,06,10,57,22.00
2013,08,06,10,58,22.10
2013,08,06,10,59,22.10
2013,08,06,11,00,22.10
2013,08,06,11,01,22.20
2013,08,06,11,02,22.20
2013,08,06,11,03,22.10
2013,08,06,11,04,22.10
2013,08,06,11,05,22.10
2013,08,06,11,06,22.20
2013,08,06,11,07,22.20
2013,08,06,11,08,22.30
2013,08,06,11,09,22.30
2013,08,06,11,10,22.40
2013,08,06,11,11,22.40
2013,08,06,11,12,22.30
2013,08,06,11,13,22.40
2013,08,06,11,14,22.40
2013,08,06,11,15,22.40
2013,08,06,11,16,22.40
2013,08,06,11,17,22.40
2013,08,06,11,18,22.40
2013,08,06,11,19,22.40
2013,08,06,11,20,22.50
2013,08,06,11,21,22.50
2013,08,06,11,22,22.60
2013,08,06,11,23,22.60
2013,08,06,11,24,22.60
2013,08,06,11,25,22.70
2013,08,06,11,26,22.70
2013,08,06,11,27,22.70
2013,08,06,11,28,22.80
2013,08,06,11,29,22.90
2013,08,06,11,30,22.90
2013,08,06,11,31,23.00
2013,08,06,11,32,23.00
2013,08,06,11,33,23.10
2013,08,06,11,34,23.10
2013,08,06,11,35,23.10
2013,08,06,11,36,23.00
2013,08,06,11,37,23.00
2013,08,06,11,38,23.10
2013,08,06,11,39,23.20
2013,08,06,11,40,23.20
2013,08,06,11,41,23.30
2013,08,06,11,42,23.40
2013,08,06,11,43,23.30
2013,08,06,11,44,23.30
2013,08,06,11,45,23.30
2013,08,06,11,46,23.30
2013,08,06,11,47,23.20
2013,08,06,11,48,23.30
2013,08,06,11,49,23.30
2013,08,06,11,50,23.30
2013,08,06,11,51,23.40
2013,08,06,11,52,23.40
2013,08,06,11,53,23.40
2013,08,06,11,54,23.40
2013,08,06,11,55,23.40
2013,08,06,11,56,23.40
2013,08,06,11,57,23.40
2013,08,06,11,58,23.50
2013,08,06,11,59,23.50
2013,08,06,12,00,23.50
2013,08,06,12,01,23.50
2013,08,06,12,02,23.50
2013,08,06,12,03,23.40
2013,08,06,12,04,23.40
2013,08,06,12,05,23.40
2013,08,06,12,06,23.40
2013,08,06,12,07,23.30
2013,08,06,12,08,23.30
2013,08,06,12,09,23.30
2013,08,06,12,10,23.30
2013,08,06,12,11,23.40
2013,08,06,12,12,23.50
2013,08,06,12,13,23.50
2013,08,06,12,14,23.60
2013,08,06,12,15,23.60
2013,08,06,12,16,23.60
2013,08,06,12,17,23.50
2013,08,06,12,18,23.50
2013,08,06,12,19,23.50
2013,08,06,12,20,23.60
2013,08,06,12,21,23.60
2013,08,06,12,22,23.70
2013,08,06,12,23,23.70
2013,08,06,12,24,23.80
2013,08,06,12,25,23.80
2013,08,06,12,26,23.80
2013,08,06,12,27,23.90
2013,08,06,12,28,23.90
2013,08,06,12,29,23.90
2013,08,06,12,30,23.90
2013,08,06,12,31,23.80
2013,08,06,12,32,23.80
2013,08,06,12,33,23.90
2013,08,06,12,34,23.90
2013,08,06,12,35,23.90
2013,08,06,12,36,23.90
2013,08,06,12,37,24.00
2013,08,06,12,38,24.10
2013,08,06,12,39,24.20
2013,08,06,12,40,24.20
2013,08,06,12,41,24.10
2013,08,06,12,42,24.00
2013,08,06,12,43,23.90
2013,08,06,12,44,24.00
2013,08,06,12,45,24.00
2013,08,06,12,46,24.00
2013,08,06,12,47,24.00
2013,08,06,12,48,23.90
2013,08,06,12,49,23.90
2013,08,06,12,50,23.90
2013,08,06,12,51,23.90
2013,08,06,12,52,23.90
2013,08,06,12,53,23.90
2013,08,06,12,54,23.90
2013,08,06,12,55,23.90
2013,08,06,12,56,23.90
2013,08,06,12,57,23.90
2013,08,06,12,58,23.90
2013,08,06,12,59,23.90
2013,08,06,13,00,23.90
2013,08,06,13,01,23.80
2013,08,06,13,02,23.80
2013,08,06,13,03,23.90
2013,08,06,13,04,24.00
2013,08,06,13,05,24.00
2013,08,06,13,06,24.00
2013,08,06,13,07,24.00
2013,08,06,13,08,24.00
2013,08,06,13,09,24.00
2013,08,06,13,10,24.00
2013,08,06,13,11,24.10
2013,08,06,13,12,24.10
2013,08,06,13,13,24.10
2013,08,06,13,14,24.20
2013,08,06,13,15,24.20
2013,08,06,13,16,24.20
2013,08,06,13,17,24.20
2013,08,06,13,18,24.20
2013,08,06,13,19,24.20
2013,08,06,13,20,24.20
2013,08,06,13,21,24.20
2013,08,06,13,22,24.20
2013,08,06,13,23,24.30
2013,08,06,13,24,24.30
2013,08,06,13,25,24.30
2013,08,06,13,26,24.40
2013,08,06,13,27,24.40
2013,08,06,13,28,24.40
2013,08,06,13,29,24.40
2013,08,06,13,30,24.40
2013,08,06,13,31,24.40
2013,08,06,13,32,24.40
2013,08,06,13,33,24.40
2013,08,06,13,34,24.40
2013,08,06,13,35,24.40
2013,08,06,13,36,24.40
2013,08,06,13,37,24.40
2013,08,06,13,38,24.40
2013,08,06,13,39,24.40
2013,08,06,13,40,24.40
2013,08,06,13,41,24.40
2013,08,06,13,42,24.50
2013,08,06,13,43,24.50
2013,08,06,13,44,24.50
2013,08,06,13,45,24.50
2013,08,06,13,46,24.50
2013,08,06,13,47,24.50
2013,08,06,13,48,24.50
2013,08,06,13,49,24.50
2013,08,06,13,50,24.50
2013,08,06,13,51,24.40
2013,08,06,13,52,24.40
2013,08,06,13,53,24.40
2013,08,06,13,54,24.40
2013,08,06,13,55,24.30
2013,08,06,13,56,24.30
2013,08,06,13,57,24.30
2013,08,06,13,58,24.30
2013,08,06,13,59,24.40
2013,08,06,14,00,24.50
2013,08,06,14,01,24.50
2013,08,06,14,02,24.60
2013,08,06,14,03,24.70
2013,08,06,14,04,24.80
2013,08,06,14,05,24.90
2013,08,06,14,06,24.90
2013,08,06,14,07,24.90
2013,08,06,14,08,24.90
2013,08,06,14,09,25.00
2013,08,06,14,10,24.90
2013,08,06,14,11,24.90
2013,08,06,14,12,24.90
2013,08,06,14,13,24.80
2013,08,06,14,14,24.80
2013,08,06,14,15,24.80
2013,08,06,14,16,24.80
2013,08,06,14,17,24.80
2013,08,06,14,18,24.90
2013,08,06,14,19,24.90
2013,08,06,14,20,25.00
2013,08,06,14,21,25.00
2013,08,06,14,22,25.10
2013,08,06,14,23,25.10
2013,08,06,14,24,25.20
2013,08,06,14,25,25.10
2013,08,06,14,26,25.10
2013,08,06,14,27,25.10
2013,08,06,14,28,25.00
2013,08,06,14,29,25.00
2013,08,06,14,30,25.10
2013,08,06,14,31,25.20
2013,08,06,14,32,25.20
2013,08,06,14,33,25.20
2013,08,06,14,34,25.20
2013,08,06,14,35,25.20
2013,08,06,14,36,25.30
2013,08,06,14,37,25.30
2013,08,06,14,38,25.30
2013,08,06,14,39,25.30
2013,08,06,14,40,25.40
2013,08,06,14,41,25.40
2013,08,06,14,42,25.40
2013,08,06,14,43,25.40
2013,08,06,14,44,25.50
2013,08,06,14,45,25.50
2013,08,06,14,46,25.50
2013,08,06,14,47,25.40
2013,08,06,14,48,25.40
2013,08,06,14,49,25.40
2013,08,06,14,50,25.40
2013,08,06,14,51,25.40
2013,08,06,14,52,25.30
2013,08,06,14,53,25.30
2013,08,06,14,54,25.30
2013,08,06,14,55,25.20
2013,08,06,14,56,25.20
2013,08,06,14,57,25.20
2013,08,06,14,58,25.20
2013,08,06,14,59,25.20
2013,08,06,15,00,25.10
2013,08,06,15,01,25.10
2013,08,06,15,02,25.10
2013,08,06,15,03,25.00
2013,08,06,15,04,25.00
2013,08,06,15,05,25.00
2013,08,06,15,06,24.90
2013,08,06,15,07,25.00
2013,08,06,15,08,25.00
2013,08,06,15,09,25.00
2013,08,06,15,10,25.00
2013,08,06,15,11,25.10
2013,08,06,15,12,25.10
2013,08,06,15,13,25.10
2013,08,06,15,14,25.10
2013,08,06,15,15,25.10
2013,08,06,15,16,25.20
2013,08,06,15,17,25.20
2013,08,06,15,18,25.30
2013,08,06,15,19,25.30
2013,08,06,15,20,25.40
2013,08,06,15,21,25.40
2013,08,06,15,22,25.40
2013,08,06,15,23,25.30
2013,08,06,15,24,25.30
2013,08,06,15,25,25.30
2013,08,06,15,26,25.30
2013,08,06,15,27,25.30
2013,08,06,15,28,25.30
2013,08,06,15,29,25.20
2013,08,06,15,30,25.20
2013,08,06,15,31,25.20
2013,08,06,15,32,25.20
2013,08,06,15,33,25.20
2013,08,06,15,34,25.20
2013,08,06,15,35,25.20
2013,08,06,15,36,25.30
2013,08,06,15,37,25.30
2013,08,06,15,38,25.20
2013,08,06,15,39,25.20
2013,08,06,15,40,25.20
2013,08,06,15,41,25.20
2013,08,06,15,42,25.20
2013,08,06,15,43,25.30
2013,08,06,15,44,25.30
2013,08,06,15,45,25.30
2013,08,06,15,46,25.30
2013,08,06,15,47,25.30
2013,08,06,15,48,25.30
2013,08,06,15,49,25.30
2013,08,06,15,50,25.30
2013,08,06,15,51,25.30
2013,08,06,15,52,25.30
2013,08,06,15,53,25.30
2013,08,06,15,54,25.30
2013,08,06,15,55,25.40
2013,08,06,15,56,25.40
2013,08,06,15,57,25.40
2013,08,06,15,58,25.40
2013,08,06,15,59,25.40
2013,08,06,16,00,25.40
2013,08,06,16,01,25.40
2013,08,06,16,02,25.40
2013,08,06,16,03,25.30
2013,08,06,16,04,25.30
2013,08,06,16,05,25.30
2013,08,06,16,06,25.20
2013,08,06,16,07,25.20
2013,08,06,16,08,25.20
2013,08,06,16,09,25.20
2013,08,06,16,10,25.30
2013,08,06,16,11,25.30
2013,08,06,16,12,25.30
2013,08,06,16,13,25.40
2013,08,06,16,14,25.40
2013,08,06,16,15,25.50
2013,08,06,16,16,25.60
2013,08,06,16,17,25.60
2013,08,06,16,18,25.60
2013,08,06,16,19,25.60
2013,08,06,16,20,25.60
2013,08,06,16,21,25.60
2013,08,06,16,22,25.60
2013,08,06,16,23,25.50
2013,08,06,16,24,25.50
2013,08,06,16,25,25.50
2013,08,06,16,26,25.40
2013,08,06,16,27,25.40
2013,08,06,16,28,25.50
2013,08,06,16,29,25.50
2013,08,06,16,30,25.50
2013,08,06,16,31,25.60
2013,08,06,16,32,25.60
2013,08,06,16,33,25.60
2013,08,06,16,34,25.60
2013,08,06,16,35,25.60
2013,08,06,16,36,25.60
2013,08,06,16,37,25.70
2013,08,06,16,38,25.70
2013,08,06,16,39,25.80
2013,08,06,16,40,25.80
2013,08,06,16,41,25.80
2013,08,06,16,42,25.80
2013,08,06,16,43,25.80
2013,08,06,16,44,25.90
2013,08,06,16,45,25.90
2013,08,06,16,46,25.90
2013,08,06,16,47,26.00
2013,08,06,16,48,26.00
2013,08,06,16,49,26.10
2013,08,06,16,50,26.10
2013,08,06,16,51,26.10
2013,08,06,16,52,26.10
2013,08,06,16,53,26.10
2013,08,06,16,54,26.10
2013,08,06,16,55,26.10
2013,08,06,16,56,26.10
2013,08,06,16,57,26.10
2013,08,06,16,58,26.10
2013,08,06,16,59,26.10
2013,08,06,17,00,26.10
2013,08,06,17,01,26.10
2013,08,06,17,02,26.00
2013,08,06,17,03,26.00
2013,08,06,17,04,25.90
2013,08,06,17,05,25.90
2013,08,06,17,06,25.90
2013,08,06,17,07,25.80
2013,08,06,17,08,25.80
2013,08,06,17,09,25.80
2013,08,06,17,10,25.80
2013,08,06,17,11,25.80
2013,08,06,17,12,25.70
2013,08,06,17,13,25.70
2013,08,06,17,14,25.70
2013,08,06,17,15,25.70
2013,08,06,17,16,25.70
2013,08,06,17,17,25.70
2013,08,06,17,18,25.70
2013,08,06,17,19,25.70